Vorticity
10 21 16 -2 1 30 -3 10 7 8 2 6 3 7 11 11 9 9 7 8 3 4 5 5 4 -1 6 15 12 8 6 7 8 7 6 7 7 6 10 6 6 6 5 4 6 1 5 1 5
32 5 2 12 27 -4 9 19 12 11 5 -0 5 1 7 7 10 9 10 8 9 4 4 5 4 2 1 2 3 4 5 6 7 5 4 6 6 5 4 6 4 8 2 6 4 2 8 6 7
3 10 8 15 -3 -0 14 0 3 4 8 7 8 -4 6 10 13 14 11 9 8 1 1 4 2 2 2 0 -0 1 3 3 2 6 8 6 6 5 5 5 6 4 6 6 5 7 7 5 6
1 7 5 25 6 5 6 6 5 11 7 3 7 4 5 5 10 18 10 -1 -2 4 2 -0 0 1 2 2 6 7 6 6 7 7 4 9 9 7 5 4 5 6 6 7 6 7 5 6 9
8 12 8 6 12 3 2 3 4 5 4 3 -2 -4 13 11 14 1 1 2 1 1 2 3 5 5 2 5 2 4 6 8 9 9 13 11 10 11 12 11 9 8 8 10 12 12 12 12 10
2 4 3 5 6 5 5 5 2 2 2 4 12 8 11 14 1 2 -2 3 3 1 1 5 9 8 8 5 8 10 16 17 17 14 12 8 10 13 15 14 11 11 14 14 11 8 10 13 14
6 -7 4 3 0 -1 -1 -0 1 3 2 11 5 13 10 11 3 1 -2 1 2 3 4 10 4 5 8 8 7 14 6 9 14 13 8 -1 7 6 8 9 9 7 5 5 8 12 16 7 8
3 10 4 -1 -0 4 -1 1 6 6 9 10 6 6 16 9 9 9 6 6 -2 7 7 7 7 10 4 4 6 15 -1 3 4 7 4 5 4 5 7 7 6 5 3 3 4 3 3 1 4
2 -1 1 -3 -0 9 0 1 0 10 11 5 2 8 6 5 6 11 13 12 11 10 11 8 5 3 7 6 8 11 10 5 4 4 5 3 5 3 3 3 4 4 3 3 5 4 4 4 3
2 6 3 4 7 1 5 0 0 10 14 9 15 11 10 11 9 11 13 8 9 9 6 7 6 4 8 9 9 8 7 3 3 4 5 6 7 5 4 3 2 2 2 2 3 3 4 3 3
1 5 11 11 7 7 4 7 13 18 16 8 12 7 6 10 10 10 8 6 6 7 8 7 5 6 8 8 9 11 10 8 7 6 7 8 10 9 7 6 4 4 4 4 3 3 4 3 2
14 4 4 16 10 10 9 7 6 17 5 3 1 1 5 4 5 12 12 10 9 7 5 5 2 3 4 6 8 9 10 9 8 7 7 7 7 7 6 6 5 5 4 3 3 4 5 6 6
1 -0 0 0 1 7 7 10 5 4 7 2 1 0 1 2 3 11 8 12 7 5 3 2 2 1 2 7 11 12 13 10 8 9 11 11 9 9 9 11 12 12 11 10 9 9 8 8 8
1 2 5 4 3 3 5 5 3 2 9 7 5 3 4 3 3 6 8 10 5 3 1 2 -0 -1 0 6 8 10 -1 1 1 1 11 10 10 12 10 7 7 9 10 11 12 12 13 13 12
7 6 1 11 5 6 -1 3 9 1 -4 0 7 4 4 3 4 3 7 7 4 3 2 3 0 2 4 -0 5 7 3 6 2 -3 9 5 9 14 14 12 10 9 8 8 9 10 10 10 11
3 7 9 7 15 11 -0 -1 -18 -9 13 7 2 10 5 5 2 3 6 4 2 3 4 3 2 3 -1 -6 -4 4 5 5 2 3 4 9 -1 11 14 13 10 9 10 10 10 9 9 9 9
5 8 9 8 2 -0 4 -10 -2 12 19 25 20 14 5 4 4 2 3 3 4 8 6 3 2 2 2 -1 -12 7 7 8 0 5 2 0 5 -0 8 9 9 8 7 7 7 7 7 8 9
5 7 3 1 7 15 13 18 16 21 16 19 6 7 9 8 6 4 1 3 8 3 6 5 4 7 5 12 2 8 11 6 3 9 11 1 -2 -0 3 11 11 5 4 5 7 6 6 8 9
5 5 5 10 13 5 10 10 11 24 15 8 8 9 7 15 10 4 1 13 6 4 12 18 15 8 9 6 7 7 8 1 9 4 6 8 8 -3 7 7 11 11 8 4 5 4 2 3 5
9 13 6 16 -2 9 13 18 9 9 17 16 13 12 14 12 10 11 19 -8 -2 0 11 10 9 7 4 3 1 1 4 3 -2 0 -1 6 -2 0 8 11 8 8 7 7 8 10 8 4 3
7 4 5 7 9 19 18 2 16 7 3 6 10 15 14 8 8 1 2 3 1 8 3 12 9 4 1 2 4 4 -1 -1 1 3 -1 3 12 11 7 6 9 10 8 7 8 9 11 9 6
19 1 6 9 18 12 5 8 12 11 4 3 11 9 4 -0 3 2 1 9 5 2 10 7 3 2 2 4 4 7 7 -2 -0 4 -5 11 7 4 11 11 11 7 6 5 5 5 8 11 12
3 8 17 30 26 14 0 10 3 11 15 11 6 10 6 5 4 2 7 4 -3 4 12 7 6 1 2 4 4 -2 3 1 1 -3 17 3 5 12 12 9 5 6 9 11 11 11 9 7 11
5 14 17 9 10 3 5 12 -0 6 11 14 10 2 -1 -2 5 9 7 1 1 1 5 5 4 4 5 7 8 6 -4 -1 -1 7 0 12 14 9 1 6 9 12 7 8 9 12 15 19 21
12 31 8 8 8 4 -1 24 19 11 8 6 0 -1 -5 -3 0 9 8 6 2 1 9 4 4 3 5 4 3 -0 3 14 19 24 11 3 9 4 6 5 6 9 13 16 21 23 22 24 23
2 10 19 9 7 -1 14 22 12 -6 -2 2 1 -4 -3 13 20 15 9 5 4 9 6 3 5 8 7 -4 11 21 17 16 10 2 3 7 8 7 6 8 11 14 20 30 25 22 18 5 3
7 10 4 10 6 14 5 20 22 -2 -11 -14 -13 -6 5 6 10 15 14 12 8 7 9 8 4 -1 11 17 24 13 7 14 6 1 6 11 9 9 11 19 22 26 27 24 14 6 6 8 13
10 7 10 9 9 13 7 18 -1 28 15 -11 9 12 6 16 18 14 10 7 7 5 0 -1 6 5 10 10 9 8 13 5 4 9 10 8 15 19 26 22 19 20 15 5 6 15 6 12 14
6 8 7 10 8 10 5 13 -20 -16 23 12 -3 11 17 12 9 3 2 1 0 -1 3 10 12 16 16 17 10 12 5 12 5 3 5 12 19 24 24 24 17 8 20 17 15 15 11 12 12
4 7 -5 14 8 1 4 -5 46 -12 -3 1 6 7 7 12 9 5 1 6 9 19 16 8 18 10 8 7 13 19 -3 4 9 7 14 27 28 21 13 6 13 10 14 13 15 12 10 11 10
Height
3152 3153 3156 3159 3165 3163 3165 3171 3172 3173 3174 3174 3174 3177 3178 3178 3177 3180 3178 3179 3180 3181 3182 3183 3184 3184 3185 3187 3188 3188 3186 3187 3188 3186 3186 3184 3184 3182 3182 3182 3181 3182 3181 3181 3179 3178 3178 3177 3175
3151 3154 3158 3159 3163 3163 3167 3169 3171 3172 3174 3174 3175 3177 3178 3177 3177 3177 3179 3180 3182 3183 3185 3187 3187 3187 3186 3188 3188 3187 3187 3188 3187 3184 3182 3181 3181 3180 3178 3178 3178 3178 3178 3177 3175 3173 3174 3172 3170
3154 3155 3160 3161 3162 3165 3169 3172 3171 3173 3173 3175 3176 3177 3176 3178 3178 3177 3180 3182 3184 3185 3186 3188 3189 3187 3187 3187 3185 3185 3183 3184 3184 3182 3181 3179 3179 3177 3176 3175 3175 3174 3175 3173 3171 3171 3169 3168 3166
3156 3158 3161 3163 3163 3167 3170 3172 3174 3174 3175 3175 3175 3176 3176 3177 3177 3177 3181 3183 3185 3185 3185 3185 3187 3186 3184 3183 3182 3182 3181 3180 3178 3176 3175 3174 3174 3174 3171 3171 3170 3170 3171 3171 3169 3168 3166 3165 3163
3157 3158 3160 3162 3165 3168 3171 3173 3174 3174 3175 3175 3176 3176 3177 3177 3178 3180 3181 3182 3182 3184 3184 3184 3185 3184 3184 3183 3179 3179 3177 3177 3176 3175 3174 3174 3172 3170 3169 3167 3167 3167 3167 3166 3166 3164 3163 3162 3161
3158 3160 3162 3164 3166 3169 3172 3174 3175 3173 3173 3174 3175 3176 3177 3178 3178 3179 3180 3180 3181 3182 3182 3182 3183 3184 3182 3181 3178 3177 3177 3175 3173 3172 3172 3172 3171 3170 3168 3167 3166 3165 3165 3164 3163 3161 3159 3158 3157
3160 3161 3163 3164 3168 3170 3173 3175 3175 3174 3174 3173 3174 3174 3177 3177 3179 3180 3180 3180 3181 3181 3181 3180 3181 3181 3181 3179 3178 3176 3175 3173 3172 3171 3170 3170 3169 3168 3167 3166 3165 3164 3163 3162 3161 3159 3158 3156 3155
3162 3161 3163 3167 3169 3170 3173 3175 3176 3175 3174 3173 3175 3176 3176 3176 3178 3180 3180 3181 3181 3180 3180 3179 3179 3180 3179 3177 3176 3175 3175 3174 3173 3171 3171 3170 3169 3167 3166 3165 3163 3162 3161 3160 3159 3157 3155 3154 3152
3162 3163 3164 3167 3168 3170 3172 3174 3174 3174 3174 3173 3174 3174 3176 3177 3177 3177 3178 3179 3180 3179 3178 3179 3179 3178 3177 3177 3175 3175 3173 3173 3172 3171 3170 3169 3167 3165 3164 3162 3162 3161 3159 3158 3157 3155 3153 3151 3149
3164 3165 3165 3167 3168 3170 3172 3172 3173 3174 3173 3173 3175 3174 3174 3175 3174 3176 3176 3177 3178 3178 3178 3178 3177 3177 3176 3175 3174 3173 3172 3171 3170 3169 3167 3165 3163 3162 3161 3159 3157 3156 3155 3153 3152 3151 3149 3148 3146
3164 3165 3166 3166 3169 3171 3171 3172 3171 3171 3173 3173 3176 3176 3174 3176 3174 3175 3175 3177 3177 3176 3176 3176 3175 3176 3175 3173 3172 3171 3170 3169 3168 3166 3164 3162 3160 3159 3157 3155 3153 3152 3150 3148 3147 3146 3144 3143 3141
3163 3166 3167 3167 3169 3170 3170 3171 3170 3173 3173 3174 3174 3177 3175 3174 3175 3175 3175 3176 3175 3175 3176 3175 3174 3174 3173 3172 3171 3169 3167 3166 3164 3162 3160 3158 3156 3154 3152 3150 3149 3146 3144 3142 3141 3140 3139 3138 3136
3166 3167 3168 3168 3169 3171 3169 3171 3172 3173 3174 3173 3175 3175 3175 3175 3175 3174 3175 3174 3175 3175 3175 3174 3173 3173 3172 3171 3168 3166 3164 3163 3162 3160 3157 3155 3153 3150 3148 3146 3144 3142 3139 3137 3135 3134 3133 3132 3130
3166 3168 3167 3167 3168 3170 3169 3171 3172 3174 3173 3172 3173 3173 3174 3174 3174 3174 3174 3174 3174 3174 3173 3172 3172 3171 3170 3168 3165 3163 3161 3160 3158 3155 3153 3151 3148 3146 3143 3140 3137 3135 3133 3131 3129 3127 3125 3124 3124
3166 3170 3167 3167 3167 3168 3168 3171 3172 3171 3171 3171 3170 3170 3172 3173 3173 3173 3173 3172 3172 3172 3171 3171 3170 3168 3167 3165 3163 3161 3159 3156 3154 3151 3149 3147 3144 3141 3137 3134 3131 3128 3126 3124 3122 3120 3118 3117 3116
3165 3167 3166 3167 3167 3168 3170 3169 3169 3168 3167 3167 3167 3168 3169 3169 3170 3171 3171 3170 3169 3169 3169 3168 3166 3166 3165 3163 3161 3159 3157 3153 3150 3147 3144 3141 3138 3135 3132 3129 3125 3122 3121 3119 3116 3114 3112 3110 3108
3165 3167 3167 3169 3168 3166 3167 3166 3166 3162 3161 3162 3163 3165 3166 3167 3167 3167 3168 3168 3167 3167 3166 3165 3163 3162 3161 3159 3157 3155 3152 3149 3145 3141 3138 3135 3133 3130 3126 3123 3121 3117 3115 3113 3111 3109 3106 3105 3103
3166 3167 3166 3165 3165 3164 3164 3163 3160 3157 3157 3159 3160 3162 3162 3163 3165 3166 3166 3166 3166 3165 3163 3162 3160 3159 3158 3156 3153 3150 3147 3144 3140 3137 3134 3131 3128 3124 3120 3117 3114 3111 3108 3106 3103 3101 3098 3097 3095
3164 3164 3163 3162 3161 3161 3160 3159 3157 3156 3155 3157 3159 3160 3161 3161 3162 3163 3164 3163 3163 3161 3160 3159 3157 3156 3153 3151 3148 3145 3142 3139 3136 3133 3130 3126 3121 3117 3113 3109 3107 3104 3100 3098 3096 3092 3089 3087 3086
3162 3161 3160 3159 3158 3158 3157 3157 3157 3156 3155 3156 3157 3158 3158 3159 3160 3161 3162 3161 3159 3158 3156 3154 3152 3151 3148 3145 3142 3138 3135 3132 3129 3125 3123 3119 3114 3110 3105 3101 3097 3094 3090 3087 3086 3084 3080 3077 3076
3161 3159 3158 3158 3156 3156 3156 3156 3156 3156 3155 3156 3157 3158 3158 3159 3159 3160 3159 3157 3156 3154 3151 3150 3148 3145 3142 3139 3135 3131 3127 3124 3121 3118 3115 3111 3106 3101 3096 3092 3087 3084 3080 3076 3074 3072 3069 3066 3064
3158 3157 3156 3155 3155 3155 3154 3155 3154 3155 3156 3157 3158 3158 3158 3158 3157 3156 3155 3153 3151 3149 3147 3145 3142 3139 3136 3133 3129 3125 3121 3117 3113 3108 3103 3100 3096 3092 3087 3082 3078 3074 3069 3065 3061 3058 3056 3053 3050
3158 3154 3152 3151 3151 3153 3153 3154 3156 3155 3155 3155 3156 3157 3156 3155 3154 3153 3152 3149 3146 3144 3142 3139 3137 3134 3131 3127 3122 3119 3114 3109 3103 3100 3095 3091 3087 3081 3077 3072 3067 3062 3057 3053 3049 3045 3041 3038 3036
3155 3153 3151 3150 3150 3152 3153 3154 3155 3154 3154 3153 3152 3152 3152 3153 3151 3149 3147 3144 3141 3139 3137 3135 3132 3129 3125 3120 3116 3111 3104 3100 3095 3091 3086 3080 3075 3070 3065 3060 3054 3049 3044 3038 3032 3027 3023 3020 3019
3155 3151 3150 3151 3151 3151 3151 3152 3154 3153 3152 3152 3152 3151 3150 3149 3148 3145 3142 3140 3137 3135 3132 3129 3126 3123 3119 3113 3106 3101 3096 3090 3084 3078 3073 3068 3063 3058 3052 3046 3040 3034 3027 3021 3016 3012 3008 3005 3003
3154 3153 3153 3155 3154 3153 3150 3152 3152 3151 3151 3151 3149 3148 3146 3144 3142 3140 3137 3134 3131 3129 3125 3122 3117 3113 3107 3102 3097 3090 3084 3079 3074 3069 3065 3060 3053 3047 3040 3032 3024 3018 3011 3005 3002 3000 2996 2994 2993
3156 3156 3156 3155 3156 3155 3151 3152 3151 3149 3148 3147 3145 3144 3141 3139 3137 3134 3132 3129 3126 3122 3117 3113 3108 3104 3098 3091 3084 3079 3074 3069 3064 3059 3054 3047 3039 3031 3024 3017 3009 3003 2999 2995 2993 2990 2988 2986 2982
3157 3158 3157 3157 3157 3157 3150 3148 3146 3146 3146 3144 3142 3139 3136 3133 3131 3128 3126 3123 3119 3114 3109 3104 3098 3091 3084 3078 3073 3068 3063 3058 3053 3046 3039 3031 3023 3015 3007 3001 2998 2994 2991 2988 2984 2981 2978 2976 2973
3157 3157 3157 3158 3158 3158 3158 3146 3144 3143 3141 3139 3135 3132 3129 3126 3124 3121 3118 3115 3110 3104 3098 3092 3087 3081 3075 3070 3064 3059 3055 3048 3040 3032 3023 3016 3008 3001 2995 2991 2990 2987 2984 2979 2976 2973 2971 2969 2966
3156 3155 3156 3156 3157 3155 3154 3143 3139 3139 3138 3136 3131 3128 3125 3122 3119 3116 3112 3108 3102 3097 3090 3084 3077 3070 3064 3059 3053 3049 3042 3034 3026 3017 3010 3002 2995 2990 2986 2983 2982 2980 2976 2972 2969 2966 2963 2961 2959